Location: Malanoce
(44.2500°N, 7.4667°E)
Time: 05:29:38
(UTC+00:00)

CZ-4C R/B - Pass Details

Date: 17 November 2025
Orbit: 487 x 1492 km, 63.4° (Epoch: 09 December)

Event Time Altitude Azimuth Distance (km) Brightness Sun altitude
Rises 16:24:22 0° 262° (W) 2,819 6.9 -4.6°
Reaches altitude 10° 16:26:51 10° 278° (W) 2,040 5.3 -5.0°
Maximum altitude 16:30:29 22° 331° (NNW) 1,561 3.7 -5.6°
Drops below altitude 10° 16:34:52 10° 21° (NNE) 2,501 4.3 -6.3°
Enters shadow 16:37:50 - 34° (NE) 3,494 4.9 -6.8°
